International Virtual Aviation Organisation

Russian Federation and Kazakhstan MCD

 

Карточка аэропорта UWOO

Внимание!
Информация на этой странице в стадии наполнения.
Если вы не увидели какой-то информации, или заметили неточность - пожалуйста сообщите нам!
Спасибо!
Команда RU-STAFF
Название аэропортаОренбург
Название аэропорта (англ.)Orenburg
Превышение387 ft. (118 m.)
Координаты51°48', 55°27'
Высота перехода700m
Эшелон переходаBy ATC
Коды ответчика2440-2443
Зона ОрВДСамара РПИ (UWWW)
Данные METARUWOO 140830Z 28009G14MPS 9999 BKN027CB 13/06 Q1013 R26/190055 NOSIG RMK QFE749/0999
Проноз погоды (TAF)UWOO 140751Z 1409/1509 28007G13MPS 9999 BKN011 BKN020CB TX14/1410Z TN03/1501Z TEMPO 1409/1416 26008G17MPS -SHRA SCT015CB BECMG 1416/1418 24005G10MPS TEMPO 1418/1509 3100 -SHRA BR FEW007 BKN015CB
NOTAMshow/hide NOTAM
AWOS   TABLE

Информация о ВПП

ВПП Длина ВПП (м.) Покрытие Курс ВПП Частота ILS
082501Асфальтобетон79109
262501Асфальтобетон259109.3

Диспетчерские позиции

Позывной Наименование органа УВД Частота
UWOO_TWRОренбург-Старт128.0
UWOO_R_APPОренбург - Круг120.400



Спутниковое изображение